Showing default

QIANFAN-61, 62791

Orbit data source: Space-Track

QIANFAN-61, 62791 is a Chinese payload satellite in LEO that was launched on Thu, 23 Jan 2025 UTC via a CHANG ZHENG 6A launch vehicle from the Taiyaun Space Center, China (TSC). Payload-class satellites include a variety of spacecraft equipped with specific instruments for various scientific and technological missions. These include communications satellites like Starlink; space stations such as the ISS; scientific satellites like the Hubble; Earth observation satellites from companies like Planet Labs, Umbra, and HawkEye 360; GPS; miniature CubeSats for education and research; and military/defense satellites.

Loading next visibility...
Identifier
62791, 2025-016G
Orbit
LEO
Country
Flag of CNCN / PRC
Related business
Manufacturer
SECM
Mission
Operational Commercial Communications
Bus & Motor
QIANFAN, Unknown motor
Mass
267 kg wet, ~267 kg dry
Launch date (UTC)
2025-01-23 (11 months ago)
Launch vehicle
CHANG ZHENG 6A
Launch site
Taiyaun Space Center, China (TSC)
Object type
Payload
Rocket body
Debris
Shape & HBR
Box + 1 Pan, 1.4 m
Radar Cross Section
13.200 m², Large (>1 m²)

Expand to show TLE details & history
Last TLE update: 8 hours ago

TLE from 8 hours ago
0 QIANFAN-61
1 62791U 25016G   25352.58982082  .00000142  00000-0  20163-3 0  9990
2 62791  88.9829 102.6384 0013415 330.5589  29.4805 13.50981946 48031
Epoch: 2025-12-18T14:09Z
TLE epoch observation values (Epoch: 2025-12-18T14:09:20.518Z)
Latitude
-0.00006°
Longitude
162.85976°
Altitude
1,062.906 km
Speed
7.325 km/s
True Right ascension
06h 50m 33s
True Declination
0° 00' 00"
Sunlit
Object was in full shadow at epoch
Visualization orbit readout
Latitude
Unknown
Longitude
Unknown
Altitude
Unknown
Speed
Unknown
Apparent Right ascension
Unknown
Apparent Declination
Unknown
Sunlit
N/A
Visualization observer readout
Local Sidereal Time
20:58:49
Azimuth
Unknown
Elevation
Unknown
Doppler factor
Unknown
Orbital elements
Apogee altitude
1,075.685 km
Perigee altitude
1,055.713 km
Semi-major axis
7,443.836 km
Eccentricity
0.00134
Inclination
88.9829°
RAAN
102.6384°
Arg. of periapsis
330.5589°
True anomaly
29.55626°
Mean anomaly
29.4805°
Eccentric anomaly
29.51837°
Mean motion
3.37947 °/min
Orbital period
106.53 mins
BSTAR
0.00020163
Loading maneuver chart data...
Computing Atmospheric mass density...
Loading historical data...
Loading historical data...
Loading historical data...
Loading historical data...
Loading historical data...
Loading historical data...
Loading historical data...

Documentation

Showing up to 5 results
|